Location: Newark
(44.3100°N, 0.7769°W)
Time: 22:32:38
(UTC+00:00)

Envisat - Pass Details

Date: 25 November 2019
Orbit: 764 x 766 km, 98.1° (Epoch: 10 December)

Event Time Altitude Azimuth Distance (km) Brightness Sun altitude
Rises 16:53:45 0° 131° (SE) 3,223 6.0 -4.9°
Reaches altitude 10° 16:56:22 10° 119° (ESE) 2,300 5.1 -5.3°
Maximum altitude 17:00:29 26° 65° (ENE) 1,491 3.9 -6.0°
Drops below altitude 10° 17:04:36 10° 10° (N) 2,312 5.2 -6.7°
Sets 17:07:15 0° 358° (N) 3,242 6.0 -7.1°
